Regional Weather Roundup
Issued by NWS Charleston, WV

Home | Current Version | Previous Version | Text Only | Print | Product List | Glossary Off
Versions: 1 2 3 4 5 6 7 8 9 10 11 12 13 14 15 16 17 18 19 20 21 22 23 24 25 26 27 28 29 30 31 32 33 34 35 36 37 38 39 40 41 42 43 44 45 46 47 48 49 50

000
ASUS41 KRLX 301610
RWRRLX
West Virginia Regional Weather Roundup
National Weather Service Charleston WV
1100 AM EST FRI JAN 30 2015

Note: "fair" indicates few or no clouds below 12,000 feet with no
significant weather and/or obstructions to visibility.

WVZ003-301700-
Northern Panhandle of West Virginia

CITY           SKY/WX    TMP DP  RH WIND       PRES   REMARKS
WHEELING       PTSUNNY   22  10  60 NW20G26   30.25R WCI   7
$$

WVZ009-301700-
Northwest West Virginia

CITY           SKY/WX    TMP DP  RH WIND       PRES   REMARKS
PARKERSBURG    PTSUNNY   25  14  63 NW15G23   30.35R
$$

WVZ006-301700-
Western West Virginia

CITY           SKY/WX    TMP DP  RH WIND       PRES   REMARKS
HUNTINGTON     MOSUNNY   29  13  51 NW15G28   30.37R
$$

WVZ015-301700-
West Central West Virginia

CITY           SKY/WX    TMP DP  RH WIND       PRES   REMARKS
CHARLESTON     PTSUNNY   29  13  51 NW17G35   30.30R
$$

WVZ022-031-301700-
North Central West Virginia

CITY           SKY/WX    TMP DP  RH WIND       PRES   REMARKS
CLARKSBURG     LGT SNOW  26  17  68 NW14      30.22R
MORGANTOWN     CLOUDY    25  13  60 NW9G23    30.20R
$$

WVZ025-035-042-045-301700-
Southern West Virginia

CITY           SKY/WX    TMP DP  RH WIND       PRES   REMARKS
BECKLEY        LGT SNOW  24  17  74 NW23G29   30.16R WCI   9
LOGAN          LGT SNOW  28  23  80 NW9G22    30.25R
BLUEFIELD      CLOUDY    27  17  66 NW16G26   30.14R
LEWISBURG      LGT SNOW  29  22  75 W9G18     30.12R
$$

WVZ047-301700-
Northern Mountains of West Virginia

CITY           SKY/WX    TMP DP  RH WIND       PRES   REMARKS
ELKINS         SNOW      22  19  89 NW17G33   30.15R VSB 1/2 WCI   8
$$

WVZ052-301700-
Eastern Panhandle of West Virginia

CITY           SKY/WX    TMP DP  RH WIND       PRES   REMARKS
MARTINSBURG    MOSUNNY   36  16  44 NW21G33   30.06R
PETERSBURG     CLOUDY    32  17  52 NW16G23   30.12R
$$



USA.gov is the U.S. government's official web portal to all federal, state and local government web resources and services.